Regional Weather Roundup
Issued by NWS

Home | Current Version | Previous Version | Graphics & Text | Print | Product List | Glossary On
Versions: 1 2 3 4 5 6 7 8 9 10 11 12 13 14 15 16 17 18 19 20 21 22 23 24 25 26 27 28 29 30 31 32 33 34 35 36 37 38 39 40 41 42 43 44 45 46 47 48 49 50
000
ASUS43 KLOT 160358
RWRIL

ILLINOIS REGIONAL WEATHER ROUNDUP
NATIONAL WEATHER SERVICE CHICAGO/ROMEOVILLE IL
1100 PM CDT TUE APR 15 2014

NOTE: "FAIR" INDICATES FEW OR NO CLOUDS BELOW 12,000 FEET WITH NO
SIGNIFICANT WEATHER AND/OR OBSTRUCTIONS TO VISIBILITY.

* THESE STATIONS ARE NOT UNDER NWS QUALITY CONTROL. THEY ALSO MAY NOT
  REPORT WEATHER SUCH AS PRECIPITATION OR FOG.

ILZ001-002-007-009-015-016-024-160500-
NORTHWEST ILLINOIS

CITY           SKY/WX    TMP DP  RH WIND       PRES   REMARKS
MOLINE         CLEAR     28  19  69 E5        30.16S WCI  23
$$

ILZ003-004-008-010-011-017-018-160500-
NORTH CENTRAL ILLINOIS

CITY           SKY/WX    TMP DP  RH WIND       PRES   REMARKS
ROCKFORD       NOT AVBL
$$

ILZ005-006-012>014-019>023-160500-
NORTHEAST ILLINOIS

CITY           SKY/WX    TMP DP  RH WIND       PRES   REMARKS
CHICAGO-OHARE  CLEAR     31  19  61 S5        30.19S WCI  26
CHICAGO-MIDWAY CLEAR     34  21  59 S5        30.20S WCI  30
AURORA         CLEAR     29  21  72 SE3       30.19S
WAUKEGAN       CLEAR     27  22  81 CALM      30.19S
DUPAGE AIRPORT CLEAR     29  20  69 SE5       30.18S WCI  24
WHEELING       CLEAR     30  20  66 CALM      30.21S
NORTHERLY ISL    N/A     34  20  57 S5          N/A  WCI  30
$$

LMZ740>746-160500-
SOUTHERN LAKE MICHIGAN

STATION/POSITION SKY/WX   TEMP    WIND        PRES    VSBY  WAVE
                          AIR SEA DIR/SP/G                  HT/PER
                          (F)     (DEG/KT/KT) (MB)    (MI)  (FT/S)
WAUKEGAN HARBOR            34     180/ 12/ 15 1023.7S
HARRISON CRIB              35     200/  8/ 10   N/A
BURNHAM HARBOR             34     170/  5/  7   N/A
CALUMET HARBOR             33     140/  4/  5 1023.6S
MICHIGAN CITY              32     150/  3/  5   N/A
$$

ILZ025>027-034>036-040-047-049-050-058-095>099-160500-
WEST-CENTRAL ILLINOIS

CITY           SKY/WX    TMP DP  RH WIND       PRES   REMARKS
$$

ILZ028>032-037-038-041>044-048-051>054-059>061-160500-
CENTRAL ILLINOIS

CITY           SKY/WX    TMP DP  RH WIND       PRES   REMARKS
PEORIA         NOT AVBL
SPRINGFIELD    CLEAR     34  22  61 SE6       30.20S WCI  29
TAYLORVILLE    NOT AVBL
$$

ILZ033-039-045-046-055>057-062-063-160500-
EAST-CENTRAL ILLINOIS

CITY           SKY/WX    TMP DP  RH WIND       PRES   REMARKS
CHAMPAIGN      CLEAR     30  26  85 SE7       30.21F WCI  23
$$

ILZ079-100>102-160500-
SOUTHWEST ILLINOIS

CITY           SKY/WX    TMP DP  RH WIND       PRES   REMARKS
CAHOKIA*       CLEAR     38  25  59 SE3       30.22R
$$

ILZ064>066-069>071-074>076-080>082-084>086-088>090-092>094-160500-
SOUTH-CENTRAL ILLINOIS

CITY           SKY/WX    TMP DP  RH WIND       PRES   REMARKS
CARBONDALE     CLEAR     36  26  67 SE5       30.24R WCI  32
$$

ILZ067-068-072-073-078-083-087-091-160500-
SOUTHEAST ILLINOIS

CITY           SKY/WX    TMP DP  RH WIND       PRES   REMARKS
$$

ABBREVIATIONS USED IN REMARKS
   TC - TEMPERATURE IN CELSIUS
  WCI - WIND CHILL INDEX
   HX - HEAT INDEX
  VSB - VISIBILITY
$$




USA.gov is the U.S. government's official web portal to all federal, state and local government web resources and services.